Location: Cactus School
(34.5700°N, 118.0931°W)
Time: 08:59:16
(UTC-07:00)

S-56A Canister/Altair - Pass Details

Date: 21 April 2024
Orbit: 638 x 2488 km, 38.9° (Epoch: 29 May)

Event Time Altitude Azimuth Distance (km) Brightness Sun altitude
Rises 15:06:02 0° 206° (SSW) 2,917 11.0 52.1°
Reaches altitude 10° 15:08:44 10° 189° (S) 2,022 10.2 51.6°
Maximum altitude 15:12:05 21° 140° (SE) 1,528 9.2 51.0°
Drops below altitude 10° 15:15:52 10° 92° (E) 2,303 9.7 50.3°
Sets 15:19:11 0° 77° (ENE) 3,465 10.5 49.7°
